{"data":{"norad_id":57889,"epoch":"2026-05-25T01:31:09.165792Z","epoch_age_seconds":66592,"freshness":"FRESH","line1":"1 57889U 23145D   26145.06330053  .00006082  00000+0  29728-3 0  9996","line2":"2 57889  34.9918   8.4649 0003879 221.0890 138.9531 15.17573239149370","mean_motion":15.17573239,"eccentricity":0.0003879,"inclination_deg":34.9918,"raan_deg":8.4649,"arg_perigee_deg":221.089,"mean_anomaly_deg":138.9531,"bstar":0.00029728,"rev_number":14937,"period_min":94.888336390861,"perigee_km":510.50432652741,"apogee_km":515.85060829122,"semimajor_km":6891.3144674093,"source":"CELESTRAK","updated_at":"2026-05-25T13:38:00.320622Z"}}